Location: Cabeza de los Veneras
(40.2000°N, 5.2000°W)
Time: 02:07:14
(UTC+00:00)

Cosmos 44 - Pass Details

Date: 18 April 2024
Orbit: 577 x 779 km, 65.1° (Epoch: 25 May)

Event Time Altitude Azimuth Distance (km) Brightness Sun altitude
Rises 20:54:36 0° 207° (SSW) 3,230 6.7 -20.0°
Reaches altitude 10° 20:56:59 10° 206° (SSW) 2,316 5.9 -20.4°
Maximum altitude 21:02:21 82° 120° (ESE) 790 3.4 -21.2°
Drops below altitude 10° 21:07:43 10° 33° (NNE) 2,316 6.0 -22.0°
Sets 21:10:06 0° 33° (NNE) 3,230 6.8 -22.4°
